EN

Hourly Weather Bolshie Shali

Today, 30 October, Friday

Time Temperature Precipitation Wind Pressure Humidity
00:00 -3°C° 0 mm 2 mps 751 mmHg 85%
01:00 -3°C° 0 mm 2 mps 751 mmHg 86%
02:00 -3°C° 0 mm 2 mps 751 mmHg 87%
03:00 -3°C° 0 mm 2 mps 751 mmHg 88%
04:00 -3°C° 0 mm 2 mps 751 mmHg 89%
05:00 -3°C° 0 mm 2 mps 751 mmHg 90%
06:00 -2°C° 0 mm 2 mps 750 mmHg 91%
07:00 -1°C° 0 mm 3 mps 750 mmHg 89%
08:00 0°C° 0 mm 3 mps 750 mmHg 87%
09:00 +1°C° 0 mm 3 mps 750 mmHg 85%
10:00 +1°C° 0 mm 3 mps 750 mmHg 83%
11:00 +2°C° 0 mm 3 mps 749 mmHg 82%
12:00 +2°C° 0 mm 3 mps 749 mmHg 80%
13:00 +2°C° 0 mm 3 mps 749 mmHg 81%
14:00 +2°C° 0 mm 3 mps 749 mmHg 82%
15:00 +2°C° 0 mm 3 mps 749 mmHg 82%
16:00 +2°C° 0 mm 3 mps 748 mmHg 85%
17:00 +1°C° 0 mm 3 mps 748 mmHg 87%
18:00 +1°C° 0 mm 3 mps 748 mmHg 90%
19:00 +1°C° 0 mm 3 mps 747 mmHg 90%
20:00 +1°C° 0 mm 3 mps 747 mmHg 90%
21:00 +2°C° 0 mm 2 mps 747 mmHg 91%
22:00 +2°C° 0 mm 2 mps 747 mmHg 89%
23:00 +2°C° 0 mm 2 mps 747 mmHg 88%

Tomorrow, 31 October, Saturday

Time Temperature Precipitation Wind Pressure Humidity
00:00 +2°C° 0 mm 2 mps 746 mmHg 86%
01:00 +2°C° 0.1 mm 2 mps 746 mmHg 87%
02:00 +1°C° 0.1 mm 3 mps 746 mmHg 89%
03:00 +1°C° 0.1 mm 3 mps 746 mmHg 90%
04:00 +1°C° 0.2 mm 3 mps 746 mmHg 91%
05:00 +2°C° 0.2 mm 2 mps 745 mmHg 92%
06:00 +3°C° 0.2 mm 2 mps 745 mmHg 94%
07:00 +3°C° 0.5 mm 2 mps 745 mmHg 94%
08:00 +3°C° 0.5 mm 2 mps 745 mmHg 95%
09:00 +3°C° 0.5 mm 2 mps 745 mmHg 95%
10:00 +3°C° 0.4 mm 2 mps 745 mmHg 96%
11:00 +3°C° 0.4 mm 2 mps 745 mmHg 96%
12:00 +3°C° 0.4 mm 2 mps 745 mmHg 96%
13:00 +4°C° 0.2 mm 1 mps 745 mmHg 97%
14:00 +4°C° 0.2 mm 1 mps 745 mmHg 97%
15:00 +4°C° 0.2 mm 1 mps 745 mmHg 98%
16:00 +4°C° 0.1 mm 1 mps 745 mmHg 98%
17:00 +4°C° 0.1 mm 1 mps 745 mmHg 98%
18:00 +4°C° 0.1 mm 1 mps 745 mmHg 98%
19:00 +4°C° 0 mm 1 mps 745 mmHg 97%
20:00 +4°C° 0 mm 1 mps 746 mmHg 97%
21:00 +3°C° 0 mm 2 mps 746 mmHg 96%
22:00 +3°C° 0 mm 2 mps 746 mmHg 95%
23:00 +3°C° 0 mm 2 mps 747 mmHg 95%

Day after tomorrow, 1 November, Sunday

Time Temperature Precipitation Wind Pressure Humidity
00:00 +3°C° 0 mm 2 mps 747 mmHg 94%
01:00 +3°C° 0 mm 2 mps 748 mmHg 94%
02:00 +2°C° 0 mm 3 mps 748 mmHg 93%
03:00 +2°C° 0 mm 3 mps 749 mmHg 93%
04:00 +2°C° 0 mm 3 mps 749 mmHg 91%
05:00 +2°C° 0 mm 3 mps 749 mmHg 89%
06:00 +1°C° 0 mm 4 mps 750 mmHg 88%
07:00 +1°C° 0 mm 3 mps 750 mmHg 86%
08:00 +1°C° 0 mm 3 mps 751 mmHg 85%
09:00 +1°C° 0 mm 3 mps 751 mmHg 84%
10:00 +1°C° 0 mm 3 mps 751 mmHg 83%
11:00 +1°C° 0 mm 3 mps 752 mmHg 82%
12:00 +2°C° 0 mm 2 mps 752 mmHg 81%
13:00 +2°C° 0 mm 2 mps 752 mmHg 81%
14:00 +2°C° 0 mm 2 mps 752 mmHg 82%
15:00 +2°C° 0 mm 2 mps 752 mmHg 82%
16:00 +2°C° 0 mm 2 mps 752 mmHg 83%
17:00 +2°C° 0 mm 2 mps 752 mmHg 83%
18:00 +2°C° 0 mm 2 mps 752 mmHg 83%
19:00 +1°C° 0 mm 2 mps 753 mmHg 85%
20:00 +1°C° 0 mm 2 mps 753 mmHg 87%
21:00 -1°C° 0 mm 2 mps 753 mmHg 89%
22:00 -1°C° 0 mm 2 mps 753 mmHg 89%
23:00 -1°C° 0 mm 2 mps 753 mmHg 88%

2 November, Monday

Time Temperature Precipitation Wind Pressure Humidity
00:00 -1°C° 0 mm 2 mps 753 mmHg 87%
01:00 -1°C° 0 mm 2 mps 753 mmHg 87%
02:00 -1°C° 0 mm 2 mps 753 mmHg 88%
03:00 -1°C° 0 mm 2 mps 753 mmHg 88%
04:00 -2°C° 0 mm 2 mps 753 mmHg 90%
05:00 -2°C° 0 mm 2 mps 753 mmHg 91%
06:00 -3°C° 0 mm 2 mps 753 mmHg 93%
07:00 -2°C° 0 mm 2 mps 753 mmHg 89%
08:00 -2°C° 0 mm 2 mps 753 mmHg 86%
09:00 -1°C° 0 mm 2 mps 753 mmHg 83%
10:00 +1°C° 0 mm 2 mps 753 mmHg 79%
11:00 +1°C° 0 mm 2 mps 753 mmHg 75%
12:00 +2°C° 0 mm 2 mps 754 mmHg 71%
13:00 +2°C° 0 mm 2 mps 754 mmHg 73%
14:00 +2°C° 0 mm 2 mps 753 mmHg 75%
15:00 +1°C° 0 mm 2 mps 753 mmHg 77%
16:00 +1°C° 0 mm 2 mps 753 mmHg 80%
17:00 -1°C° 0 mm 2 mps 753 mmHg 84%
18:00 -2°C° 0 mm 2 mps 753 mmHg 87%
19:00 -2°C° 0 mm 2 mps 753 mmHg 85%
20:00 -2°C° 0 mm 2 mps 753 mmHg 83%
21:00 -2°C° 0 mm 2 mps 753 mmHg 81%
22:00 -2°C° 0 mm 2 mps 753 mmHg 82%
23:00 -2°C° 0 mm 2 mps 753 mmHg 82%

3 November, Tuesday

Time Temperature Precipitation Wind Pressure Humidity
00:00 -2°C° 0 mm 2 mps 753 mmHg 82%
01:00 -2°C° 0 mm 2 mps 753 mmHg 83%
02:00 -2°C° 0 mm 2 mps 753 mmHg 84%
03:00 -2°C° 0 mm 2 mps 753 mmHg 84%
04:00 -2°C° 0 mm 2 mps 753 mmHg 85%
05:00 -2°C° 0 mm 3 mps 753 mmHg 86%
06:00 -2°C° 0 mm 3 mps 752 mmHg 86%
07:00 -1°C° 0 mm 3 mps 752 mmHg 84%
08:00 0°C° 0 mm 3 mps 752 mmHg 82%
09:00 -1°C° 0 mm 4 mps 752 mmHg 80%
10:00 0°C° 0 mm 4 mps 752 mmHg 79%
11:00 +1°C° 0 mm 4 mps 752 mmHg 78%
12:00 +3°C° 0 mm 4 mps 752 mmHg 76%
13:00 +3°C° 0 mm 3 mps 752 mmHg 80%
14:00 +3°C° 0 mm 3 mps 752 mmHg 83%
15:00 +4°C° 0 mm 2 mps 752 mmHg 87%
16:00 +2°C° 0 mm 3 mps 751 mmHg 88%
17:00 +2°C° 0 mm 3 mps 751 mmHg 90%
18:00 +1°C° 0 mm 3 mps 751 mmHg 91%
19:00 +1°C° 0 mm 3 mps 751 mmHg 92%
20:00 +1°C° 0 mm 3 mps 751 mmHg 92%
21:00 +1°C° 0 mm 3 mps 750 mmHg 92%
22:00 +1°C° 0 mm 3 mps 750 mmHg 92%
23:00 +1°C° 0 mm 3 mps 750 mmHg 93%

4 November, Wednesday

Time Temperature Precipitation Wind Pressure Humidity
00:00 +1°C° 0 mm 3 mps 750 mmHg 93%
01:00 +2°C° 0 mm 3 mps 750 mmHg 93%
02:00 +1°C° 0 mm 4 mps 750 mmHg 94%
03:00 +1°C° 0 mm 4 mps 749 mmHg 94%
04:00 +1°C° 0 mm 4 mps 749 mmHg 94%
05:00 +3°C° 0 mm 4 mps 749 mmHg 94%
06:00 +3°C° 0 mm 4 mps 749 mmHg 93%
07:00 +3°C° 0 mm 4 mps 749 mmHg 93%
08:00 +3°C° 0 mm 5 mps 749 mmHg 92%
09:00 +5°C° 0 mm 5 mps 750 mmHg 91%
10:00 +5°C° 0 mm 4 mps 750 mmHg 91%
11:00 +5°C° 0 mm 4 mps 750 mmHg 90%
12:00 +6°C° 0 mm 4 mps 750 mmHg 89%
13:00 +7°C° 0 mm 3 mps 751 mmHg 91%
14:00 +5°C° 0 mm 3 mps 751 mmHg 92%
15:00 +6°C° 0 mm 2 mps 751 mmHg 94%
16:00 +6°C° 0 mm 2 mps 751 mmHg 95%
17:00 +5°C° 0 mm 2 mps 751 mmHg 96%
18:00 +5°C° 0 mm 2 mps 751 mmHg 97%
19:00 +5°C° 0 mm 2 mps 751 mmHg 97%
20:00 +4°C° 0 mm 2 mps 751 mmHg 97%
21:00 +4°C° 0 mm 2 mps 751 mmHg 97%
22:00 +4°C° 0 mm 2 mps 751 mmHg 98%
23:00 +5°C° 0 mm 1 mps 751 mmHg 98%
Show more